| time (UTC) | temp F | wind direction | speed MPH | gust MPH | rain 1hr in | rain 24hr in | rain mn in | humidity % | barometer mb |
| 20260905084527 | 77 | 229 | 6.0 | 13.0 | 0.00 | 0.00 | 0.00 | 58 | 1014.9 |
| 20260905083021 | 75 | 237 | 7.0 | 14.0 | 0.00 | 0.00 | 0.00 | 62 | 1014.8 |
| 20260905081524 | 75 | 191 | 5.0 | 13.0 | 0.00 | 0.00 | 0.00 | 63 | 1015.3 |
| 20260905080033 | 75 | 188 | 6.0 | 12.0 | 0.00 | 0.00 | 0.00 | 66 | 1015.4 |
| 20260905074530 | 75 | 193 | 4.0 | 14.0 | 0.00 | 0.00 | 0.00 | 69 | 1015.6 |
| 20260905073035 | 75 | 142 | 6.0 | 17.0 | 0.00 | 0.00 | 0.00 | 70 | 1015.8 |
| 20260905071523 | 75 | 192 | 8.0 | 19.0 | 0.00 | 0.00 | 0.00 | 65 | 1014.8 |
| 20260905070058 | 77 | 225 | 11.0 | 19.0 | 0.00 | 0.00 | 0.00 | 61 | 1014.8 |
| 20260905064529 | 78 | 208 | 9.0 | 16.0 | 0.00 | 0.00 | 0.00 | 56 | 1015.0 |
| 20260905063030 | 78 | 258 | 6.0 | 14.0 | 0.00 | 0.00 | 0.00 | 56 | 1015.2 |
| 20260905061533 | 77 | 231 | 6.0 | 11.0 | 0.00 | 0.00 | 0.00 | 57 | 1015.4 |
| 20260905060034 | 76 | 198 | 4.0 | 12.0 | 0.00 | 0.00 | 0.00 | 60 | 1015.5 |
| 20260905054544 | 76 | 209 | 6.0 | 14.0 | 0.00 | 0.00 | 0.00 | 61 | 1015.5 |
| 20260905053012 | 78 | 205 | 5.0 | 11.0 | 0.00 | 0.00 | 0.00 | 57 | 1015.8 |
| 20260905051534 | 79 | 352 | 5.0 | 15.0 | 0.00 | 0.00 | 0.00 | 52 | 1016.0 |
| 20260905050023 | 80 | 227 | 5.0 | 14.0 | 0.00 | 0.00 | 0.00 | 51 | 1016.2 |
| 20260905044528 | 80 | 217 | 7.0 | 13.0 | 0.00 | 0.00 | 0.00 | 52 | 1015.9 |
| 20260905043008 | 80 | 222 | 7.0 | 14.0 | 0.00 | 0.00 | 0.00 | 52 | 1015.6 |
| 20260905041512 | 80 | 186 | 8.0 | 13.0 | 0.00 | 0.00 | 0.00 | 53 | 1015.8 |
| 20260905040022 | 79 | 209 | 7.0 | 15.0 | 0.00 | 0.00 | 0.00 | 58 | 1015.8 |
| 20260905034533 | 79 | 223 | 7.0 | 18.0 | 0.00 | 0.00 | 0.00 | 60 | 1015.9 |
| 20260905033039 | 80 | 224 | 7.0 | 13.0 | 0.00 | 0.00 | 0.00 | 57 | 1016.2 |
| 20260905031515 | 81 | 197 | 7.0 | 16.0 | 0.00 | 0.00 | 0.00 | 52 | 1016.2 |
| 20260905030017 | 81 | 194 | 5.0 | 11.0 | 0.00 | 0.00 | 0.00 | 51 | 1016.0 |
| 20260905024523 | 83 | 188 | 5.0 | 15.0 | 0.00 | 0.00 | 0.00 | 47 | 1015.3 |
| 20260905023033 | 86 | 192 | 8.0 | 14.0 | 0.00 | 0.00 | 0.00 | 40 | 1015.2 |
| 20260905021532 | 86 | 213 | 3.0 | 11.0 | 0.00 | 0.00 | 0.00 | 37 | 1014.9 |
| 20260905020021 | 84 | 167 | 6.0 | 9.0 | 0.00 | 0.00 | 0.00 | 43 | 1014.4 |
| 20260905014520 | 84 | 198 | 5.0 | 12.0 | 0.00 | 0.00 | 0.00 | 45 | 1014.2 |
| 20260905013030 | 84 | 207 | 5.0 | 12.0 | 0.00 | 0.00 | 0.00 | 44 | 1014.0 |
| 20260905011534 | 84 | 225 | 7.0 | 13.0 | 0.00 | 0.00 | 0.00 | 46 | 1013.9 |
| 20260905010014 | 82 | 210 | 5.0 | 10.0 | 0.00 | 0.00 | 0.00 | 51 | 1013.8 |
| 20260905004520 | 80 | 209 | 6.0 | 17.0 | 0.00 | 0.00 | 0.00 | 58 | 1013.7 |
| 20260905003030 | 85 | 252 | 6.0 | 14.0 | 0.00 | 0.00 | 0.00 | 49 | 1013.9 |
| 20260905001528 | 87 | 138 | 5.0 | 9.0 | 0.00 | 0.00 | 0.00 | 42 | 1013.8 |
| 20260905000030 | 86 | 250 | 3.0 | 8.0 | 0.00 | 0.00 | 0.00 | 43 | 1013.9 |
| 20260904234532 | 88 | 244 | 1.0 | 8.0 | 0.00 | 0.00 | 0.00 | 42 | 1013.8 |
| 20260904233025 | 91 | 261 | 2.0 | 7.0 | 0.00 | 0.00 | 0.00 | 38 | 1013.8 |
| 20260904231508 | 94 | 188 | 3.0 | 10.0 | 0.00 | 0.00 | 0.00 | 38 | 1013.1 |
| 20260904230010 | 94 | 360 | 3.0 | 9.0 | 0.00 | 0.00 | 0.00 | 37 | 1012.9 |
| 20260904224502 | 95 | 360 | 5.0 | 10.0 | 0.00 | 0.00 | 0.00 | 36 | 1013.1 |
| 20260904223004 | 96 | 190 | 6.0 | 10.0 | 0.00 | 0.00 | 0.00 | 34 | 1013.0 |
| 20260904221505 | 97 | 360 | 8.0 | 15.0 | 0.00 | 0.00 | 0.00 | 34 | 1012.9 |
| 20260904220010 | 97 | 360 | 8.0 | 14.0 | 0.00 | 0.00 | 0.00 | 34 | 1012.8 |
| 20260904214514 | 97 | 176 | 7.0 | 14.0 | 0.00 | 0.00 | 0.00 | 34 | 1012.8 |
| 20260904213002 | 99 | 134 | 9.0 | 17.0 | 0.00 | 0.00 | 0.00 | 34 | 1012.8 |
| 20260904211504 | 99 | 169 | 9.0 | 16.0 | 0.00 | 0.00 | 0.00 | 34 | 1012.9 |
| 20260904210006 | 100 | 196 | 8.0 | 15.0 | 0.00 | 0.00 | 0.00 | 34 | 1012.9 |
| 20260904204510 | 99 | 171 | 8.0 | 18.0 | 0.00 | 0.00 | 0.00 | 35 | 1013.0 |
| 20260904203031 | 99 | 209 | 6.0 | 17.0 | 0.00 | 0.00 | 0.00 | 36 | 1013.3 |
| 20260904201504 | 100 | 209 | 6.0 | 14.0 | 0.00 | 0.00 | 0.00 | 35 | 1013.5 |
| 20260904200009 | 100 | 148 | 6.0 | 13.0 | 0.00 | 0.00 | 0.00 | 35 | 1013.5 |
| 20260904194509 | 100 | 360 | 8.0 | 12.0 | 0.00 | 0.00 | 0.00 | 35 | 1013.7 |
| 20260904193014 | 99 | 360 | 5.0 | 14.0 | 0.00 | 0.00 | 0.00 | 35 | 1013.8 |
| 20260904191525 | 98 | 151 | 4.0 | 13.0 | 0.00 | 0.00 | 0.00 | 35 | 1014.0 |
| 20260904190009 | 98 | 360 | 6.0 | 11.0 | 0.00 | 0.00 | 0.00 | 37 | 1014.1 |
| 20260904184508 | 97 | 188 | 5.0 | 15.0 | 0.00 | 0.00 | 0.00 | 36 | 1014.3 |
| 20260904183011 | 96 | 169 | 6.0 | 12.0 | 0.00 | 0.00 | 0.00 | 40 | 1014.4 |
| 20260904181521 | 95 | 360 | 6.0 | 13.0 | 0.00 | 0.00 | 0.00 | 41 | 1014.6 |
| 20260904180024 | 95 | 144 | 5.0 | 11.0 | 0.00 | 0.00 | 0.00 | 43 | 1014.7 |
| 20260904174508 | 94 | 360 | 6.0 | 11.0 | 0.00 | 0.00 | 0.00 | 44 | 1015.0 |
| 20260904173011 | 93 | 360 | 5.0 | 12.0 | 0.00 | 0.00 | 0.00 | 47 | 1015.0 |
| 20260904171519 | 92 | 189 | 4.0 | 11.0 | 0.00 | 0.00 | 0.00 | 47 | 1015.1 |
| 20260904170027 | 90 | 360 | 6.0 | 10.0 | 0.00 | 0.00 | 0.00 | 49 | 1015.0 |
| 20260904164531 | 90 | 360 | 6.0 | 13.0 | 0.00 | 0.00 | 0.00 | 50 | 1015.0 |
| 20260904163010 | 89 | 360 | 7.0 | 11.0 | 0.00 | 0.00 | 0.00 | 51 | 1015.1 |
| 20260904161514 | 88 | 144 | 5.0 | 14.0 | 0.00 | 0.00 | 0.00 | 55 | 1015.0 |
| 20260904160042 | 86 | 360 | 4.0 | 12.0 | 0.00 | 0.00 | 0.00 | 57 | 1014.8 |
| 20260904154535 | 85 | 360 | 5.0 | 16.0 | 0.00 | 0.00 | 0.00 | 60 | 1015.0 |
| 20260904153031 | 84 | 175 | 7.0 | 11.0 | 0.00 | 0.00 | 0.00 | 63 | 1015.0 |
| 20260904151518 | 83 | 259 | 7.0 | 17.0 | 0.00 | 0.00 | 0.00 | 65 | 1015.0 |
| 20260904150037 | 81 | 360 | 5.0 | 11.0 | 0.00 | 0.00 | 0.00 | 69 | 1015.1 |
| 20260904144527 | 80 | 252 | 3.0 | 10.0 | 0.00 | 0.00 | 0.00 | 73 | 1015.2 |
| 20260904143033 | 79 | 242 | 5.0 | 12.0 | 0.00 | 0.00 | 0.00 | 75 | 1015.4 |
| 20260904141520 | 78 | 360 | 3.0 | 8.0 | 0.00 | 0.00 | 0.00 | 78 | 1015.4 |
| 20260904140025 | 76 | 360 | 4.0 | 9.0 | 0.00 | 0.00 | 0.00 | 79 | 1015.5 |
| 20260904134503 | 75 | 360 | 5.0 | 9.0 | 0.00 | 0.00 | 0.00 | 80 | 1015.4 |
| 20260904133006 | 74 | 178 | 3.0 | 8.0 | 0.00 | 0.00 | 0.00 | 82 | 1015.2 |
| 20260904131513 | 72 | 360 | 2.0 | 4.0 | 0.00 | 0.00 | 0.00 | 82 | 1015.1 |
| 20260904130032 | 71 | 360 | 2.0 | 5.0 | 0.00 | 0.00 | 0.00 | 83 | 1015.0 |
| 20260904124523 | 70 | 194 | 2.0 | 6.0 | 0.00 | 0.00 | 0.00 | 82 | 1014.7 |
| 20260904123006 | 70 | 360 | 3.0 | 8.0 | 0.00 | 0.00 | 0.00 | 82 | 1014.6 |
| 20260904121518 | 70 | 360 | 3.0 | 6.0 | 0.00 | 0.00 | 0.00 | 81 | 1014.5 |
| 20260904120019 | 70 | 360 | 2.0 | 5.0 | 0.00 | 0.00 | 0.00 | 80 | 1014.4 |
| 20260904114520 | 71 | 360 | 1.0 | 5.0 | 0.00 | 0.00 | 0.00 | 78 | 1014.3 |
| 20260904113032 | 71 | 194 | 2.0 | 6.0 | 0.00 | 0.00 | 0.00 | 77 | 1014.3 |
| 20260904111511 | 72 | 360 | 2.0 | 6.0 | 0.00 | 0.00 | 0.00 | 76 | 1014.4 |
| 20260904110012 | 72 | 186 | 3.0 | 8.0 | 0.00 | 0.00 | 0.00 | 75 | 1014.3 |
| 20260904104520 | 73 | 360 | 4.0 | 8.0 | 0.00 | 0.00 | 0.00 | 73 | 1014.3 |
| 20260904103028 | 73 | 360 | 3.0 | 10.0 | 0.00 | 0.00 | 0.00 | 72 | 1014.2 |
| 20260904101531 | 73 | 194 | 3.0 | 8.0 | 0.00 | 0.00 | 0.00 | 71 | 1014.1 |
| 20260904100014 | 73 | 360 | 3.0 | 6.0 | 0.00 | 0.00 | 0.00 | 71 | 1014.1 |
| 20260904094516 | 74 | 175 | 3.0 | 6.0 | 0.00 | 0.00 | 0.00 | 70 | 1014.0 |
| 20260904093023 | 74 | 167 | 3.0 | 6.0 | 0.00 | 0.00 | 0.00 | 69 | 1014.0 |
| 20260904091530 | 74 | 360 | 3.0 | 6.0 | 0.00 | 0.00 | 0.00 | 68 | 1014.0 |
| 20260904090012 | 75 | 175 | 2.0 | 6.0 | 0.00 | 0.00 | 0.00 | 66 | 1014.1 |